contact:dominique.lefevre@mio.osupytheas.fr, maurice.libes@osupytheas.fr
Project:EMSO Ligure-ouest http://www.emso-fr.org/EMSO-France
Sensor Aquadopp, line 13 Serial AQD14315 
DOI : "https://doi.org/10.17882/74513; https://doi.org/10.17882/83244" 
Title:EMSO Ligure Ouest : Data ligne ALBATROSS capteur AQUADOPP - deploiement 2021
Id,Date,Profondeur,Latitude,Longitude,X_East,Y_North,Z_Up,Amplitude_X,Amplitude_Y,Amplitude_Z,Batterie,SoundSpeed,Heading,Pitch,Roll,Pressure,Temperature,Speed,Direction
, , m, degrees North, degrees East, m.s-1, m.s-1,m.s-1, 1, 1, 1, Volt, m.s-1, degree, degree, degree, dbar, degree_C, m.s-1, degree
07,2022-06-09T23:30:00,1500.0,42.79,6.0312,0.031,-0.031,-0.007,51.0,55.0,53.0,13.8,1504.0,334.2,0.4,1.1,1475.38,13.11,0.043,135.0
07,2022-06-10T00:00:00,1500.0,42.79,6.0312,0.037,-0.006,0.005,51.0,53.0,55.0,13.8,1504.0,326.2,0.3,0.8,1475.377,13.11,0.037,99.2
07,2022-06-10T00:30:00,1500.0,42.79,6.0312,0.052,-0.012,0.007,53.0,53.0,52.0,13.8,1504.0,333.2,-0.3,0.9,1475.412,13.11,0.053,103.0
07,2022-06-10T01:00:00,1500.0,42.79,6.0312,0.025,-0.024,0.001,53.0,52.0,53.0,13.8,1504.0,332.6,0.1,1.1,1475.382,13.11,0.034,133.8
07,2022-06-10T01:30:00,1500.0,42.79,6.0312,0.043,-0.028,-0.003,56.0,53.0,53.0,13.8,1504.0,332.4,0.2,0.9,1475.394,13.11,0.051,123.1
07,2022-06-10T02:00:00,1500.0,42.79,6.0312,0.052,-0.016,0.003,52.0,52.0,53.0,13.8,1504.0,331.9,-0.1,0.8,1475.405,13.11,0.054,107.1
07,2022-06-10T02:30:00,1500.0,42.79,6.0312,0.037,-0.02,-0.004,54.0,53.0,54.0,13.8,1504.0,338.0,-0.2,1.0,1475.428,13.11,0.042,118.4
07,2022-06-10T03:00:00,1500.0,42.79,6.0312,0.032,-0.033,0.0,52.0,54.0,56.0,13.8,1504.0,343.7,0.2,0.9,1475.406,13.11,0.045,135.9
07,2022-06-10T03:30:00,1500.0,42.79,6.0312,0.026,-0.03,-0.001,52.0,55.0,56.0,13.8,1504.0,344.7,0.1,0.9,1475.416,13.11,0.039,139.1
07,2022-06-10T04:00:00,1500.0,42.79,6.0312,0.031,-0.019,-0.008,52.0,55.0,53.0,13.8,1504.0,343.7,0.2,0.9,1475.412,13.11,0.036,121.5
07,2022-06-10T04:30:00,1500.0,42.79,6.0312,0.027,-0.02,-0.002,51.0,51.0,52.0,13.8,1504.0,348.9,-0.2,0.8,1475.397,13.11,0.033,126.5
07,2022-06-10T05:00:00,1500.0,42.79,6.0312,0.029,-0.02,0.011,54.0,53.0,53.0,13.8,1504.0,349.7,0.0,1.0,1475.399,13.11,0.035,124.6
07,2022-06-10T05:30:00,1500.0,42.79,6.0312,0.02,-0.026,0.001,52.0,54.0,51.0,13.8,1504.0,353.3,0.0,1.0,1475.397,13.11,0.032,142.4
07,2022-06-10T06:00:00,1500.0,42.79,6.0312,0.038,-0.018,-0.005,51.0,53.0,52.0,13.8,1504.1,356.9,0.2,1.0,1475.396,13.12,0.042,115.3
07,2022-06-10T06:30:00,1500.0,42.79,6.0312,0.033,-0.017,0.008,52.0,54.0,55.0,13.8,1504.1,1.2,0.5,1.1,1475.334,13.12,0.037,117.3
07,2022-06-10T07:00:00,1500.0,42.79,6.0312,0.034,-0.023,0.001,53.0,54.0,53.0,13.8,1504.1,4.5,0.3,1.0,1475.321,13.12,0.041,124.1
07,2022-06-10T07:30:00,1500.0,42.79,6.0312,0.033,-0.017,0.008,50.0,52.0,52.0,13.8,1504.1,3.0,0.1,1.1,1475.316,13.12,0.037,117.3
07,2022-06-10T08:00:00,1500.0,42.79,6.0312,0.031,-0.014,0.007,53.0,53.0,55.0,13.8,1504.1,7.5,-0.1,1.2,1475.297,13.12,0.034,114.3
07,2022-06-10T08:30:00,1500.0,42.79,6.0312,0.02,-0.023,0.005,54.0,56.0,57.0,13.8,1504.1,6.1,-0.3,0.9,1475.264,13.12,0.03,139.0
07,2022-06-10T09:00:00,1500.0,42.79,6.0312,0.024,-0.016,0.009,53.0,56.0,57.0,13.8,1504.1,3.3,0.0,0.9,1475.257,13.12,0.028,123.7
07,2022-06-10T09:30:00,1500.0,42.79,6.0312,0.031,-0.016,0.015,54.0,56.0,54.0,13.8,1504.1,5.0,-0.4,1.1,1475.242,13.12,0.034,117.3
07,2022-06-10T10:00:00,1500.0,42.79,6.0312,0.027,-0.015,-0.017,55.0,56.0,55.0,13.8,1504.1,5.7,-0.3,1.0,1475.209,13.12,0.03,119.1
07,2022-06-10T10:30:00,1500.0,42.79,6.0312,0.028,-0.013,0.006,55.0,57.0,56.0,13.8,1504.1,2.6,0.5,0.8,1475.235,13.12,0.03,114.9
07,2022-06-10T11:00:00,1500.0,42.79,6.0312,0.041,-0.007,-0.009,54.0,56.0,55.0,13.8,1504.1,3.2,-0.2,1.0,1475.226,13.12,0.041,99.7
07,2022-06-10T11:30:00,1500.0,42.79,6.0312,0.042,-0.018,-0.006,53.0,56.0,54.0,13.8,1504.1,358.6,-0.4,1.0,1475.285,13.12,0.045,113.2
07,2022-06-10T12:00:00,1500.0,42.79,6.0312,0.039,-0.009,-0.005,54.0,55.0,55.0,13.8,1504.1,353.5,0.5,0.9,1475.249,13.12,0.04,103.0
07,2022-06-10T12:30:00,1500.0,42.79,6.0312,0.041,-0.017,0.009,54.0,55.0,55.0,13.8,1504.1,347.8,0.5,0.8,1475.294,13.12,0.044,112.5
07,2022-06-10T13:00:00,1500.0,42.79,6.0312,0.053,-0.021,-0.009,54.0,56.0,55.0,13.8,1504.1,342.3,0.5,0.9,1475.256,13.12,0.057,111.6
07,2022-06-10T13:30:00,1500.0,42.79,6.0312,0.043,-0.022,0.0,53.0,55.0,54.0,13.8,1504.1,338.8,-0.3,0.8,1475.31,13.12,0.048,117.1
07,2022-06-10T14:00:00,1500.0,42.79,6.0312,0.042,-0.025,0.001,55.0,54.0,56.0,13.8,1504.1,340.6,0.4,1.0,1475.323,13.12,0.048,120.8
07,2022-06-10T14:30:00,1500.0,42.79,6.0312,0.057,-0.024,0.013,52.0,57.0,55.0,13.8,1504.1,335.1,0.4,0.7,1475.39,13.12,0.061,112.8
07,2022-06-10T15:00:00,1500.0,42.79,6.0312,0.038,-0.038,0.016,54.0,56.0,53.0,13.8,1504.1,335.1,0.3,0.8,1475.384,13.12,0.053,135.0
07,2022-06-10T15:30:00,1500.0,42.79,6.0312,0.04,-0.037,-0.006,52.0,54.0,53.0,13.8,1504.1,338.2,0.2,0.9,1475.382,13.12,0.054,132.8
07,2022-06-10T16:00:00,1500.0,42.79,6.0312,0.046,-0.031,-0.007,53.0,56.0,53.0,13.8,1504.1,338.2,0.3,0.9,1475.394,13.12,0.055,124.0
07,2022-06-10T16:30:00,1500.0,42.79,6.0312,0.046,-0.032,-0.002,57.0,56.0,56.0,13.8,1504.1,328.7,0.0,0.7,1475.401,13.12,0.056,124.8
07,2022-06-10T17:00:00,1500.0,42.79,6.0312,0.045,-0.03,0.007,54.0,54.0,54.0,13.8,1504.1,332.1,0.1,0.9,1475.408,13.12,0.054,123.7
07,2022-06-10T17:30:00,1500.0,42.79,6.0312,0.051,-0.044,0.012,54.0,54.0,56.0,13.8,1504.0,338.4,0.3,1.0,1475.375,13.11,0.067,130.8
07,2022-06-10T18:00:00,1500.0,42.79,6.0312,0.049,-0.04,0.015,53.0,52.0,53.0,13.8,1504.0,341.9,0.3,1.0,1475.385,13.11,0.063,129.2
07,2022-06-10T18:30:00,1500.0,42.79,6.0312,0.031,-0.041,0.001,54.0,54.0,55.0,13.8,1504.1,350.8,-0.1,0.8,1475.387,13.12,0.051,142.9
07,2022-06-10T19:00:00,1500.0,42.79,6.0312,0.035,-0.045,-0.005,53.0,55.0,54.0,13.8,1504.1,354.5,0.1,1.1,1475.346,13.12,0.057,142.1
07,2022-06-10T19:30:00,1500.0,42.79,6.0312,0.027,-0.049,0.001,52.0,55.0,54.0,13.8,1504.1,357.4,0.2,0.8,1475.348,13.12,0.055,151.1
07,2022-06-10T20:00:00,1500.0,42.79,6.0312,0.04,-0.034,-0.008,52.0,54.0,56.0,13.8,1504.1,359.4,0.4,1.0,1475.363,13.12,0.052,130.4
07,2022-06-10T20:30:00,1500.0,42.79,6.0312,0.026,-0.051,0.003,55.0,57.0,55.0,13.8,1504.1,0.5,-0.1,1.1,1475.329,13.12,0.057,153.0
07,2022-06-10T21:00:00,1500.0,42.79,6.0312,0.023,-0.034,0.002,56.0,57.0,58.0,13.8,1504.1,359.6,-0.1,0.9,1475.3,13.12,0.041,145.9
07,2022-06-10T21:30:00,1500.0,42.79,6.0312,0.03,-0.043,0.0,56.0,56.0,56.0,13.8,1504.1,11.6,0.1,1.2,1475.313,13.12,0.052,145.1
07,2022-06-10T22:00:00,1500.0,42.79,6.0312,0.018,-0.037,0.0,56.0,58.0,57.0,13.8,1504.1,10.2,-0.1,1.0,1475.301,13.12,0.041,154.1
07,2022-06-10T22:30:00,1500.0,42.79,6.0312,0.024,-0.03,-0.018,55.0,59.0,56.0,13.8,1504.1,17.6,0.1,0.9,1475.332,13.13,0.038,141.3
07,2022-06-10T23:00:00,1500.0,42.79,6.0312,0.024,-0.038,0.0,54.0,58.0,57.0,13.8,1504.1,21.6,0.0,1.0,1475.309,13.13,0.044,147.7
